This is the latest recevied weather packets stored in our database for station/object KC1TLF-15. If no packets are shown the sender has not sent any weather packets the latest 10 day(s).
| Time | Temp. | Humidity | Pressure | Rain* | Wind** | Luminosity | Snow |
|---|---|---|---|---|---|---|---|
| 1777940471 | 17.22° C | 48% | 1016.1 hPa | 0 mm | 0.45 m/s, 332° | - | - |
| 1777939870 | 17.78° C | 47% | 1016 hPa | 0 mm | 0 m/s | - | - |
| 1777939271 | 17.78° C | 47% | 1015.7 hPa | 0 mm | 0 m/s | - | - |
| 1777938671 | 18.33° C | 44% | 1015.4 hPa | 0 mm | 0.45 m/s, 295° | - | - |
| 1777938070 | 18.89° C | 44% | 1015.3 hPa | 0 mm | 0.45 m/s, 288° | - | - |
| 1777937471 | 19.44° C | 38% | 1015 hPa | 0 mm | 0 m/s | - | - |
| 1777936870 | 20° C | 37% | 1014.9 hPa | 0 mm | 0 m/s | - | - |
| 1777936272 | 20° C | 37% | 1014.8 hPa | 0 mm | 0.45 m/s, 5° | - | - |
| 1777935670 | 20.56° C | 35% | 1014.7 hPa | 0 mm | 0 m/s | - | - |
| 1777935069 | 21.11° C | 34% | 1014.5 hPa | 0 mm | 0.89 m/s, 308° | - | - |
| 1777934471 | 21.11° C | 35% | 1014.7 hPa | 0 mm | 0.45 m/s, 274° | - | - |
| 1777933870 | 21.11° C | 34% | 1014.4 hPa | 0 mm | 0.89 m/s, 317° | - | - |
| 1777933269 | 21.67° C | 34% | 1014.4 hPa | 0 mm | 0.45 m/s, 332° | - | - |
| 1777932670 | 21.67° C | 33% | 1014.6 hPa | 0 mm | 0.89 m/s, 278° | - | - |
| 1777932070 | 22.22° C | 34% | 1014.4 hPa | 0 mm | 0 m/s | - | - |
| 1777931469 | 22.22° C | 33% | 1014.4 hPa | 0 mm | 0.45 m/s, 92° | - | - |
| 1777930870 | 22.22° C | 32% | 1014.4 hPa | 0 mm | 0.89 m/s, 315° | - | - |
| 1777930271 | 22.22° C | 32% | 1014.4 hPa | 0 mm | 0.45 m/s, 236° | - | - |
| 1777929670 | 21.67° C | 33% | 1014.5 hPa | 0 mm | 0.45 m/s, 308° | - | - |
| 1777929071 | 22.78° C | 31% | 1014.5 hPa | 0 mm | 1.34 m/s, 265° | - | - |
| 1777928471 | 22.22° C | 34% | 1014.3 hPa | 0 mm | 0.45 m/s, 316° | - | - |
| 1777927871 | 22.78° C | 32% | 1014.4 hPa | 0 mm | 0.45 m/s, 329° | 68 W/m² | - |
| 1777927271 | 22.78° C | 32% | 1014.3 hPa | 0 mm | 0.89 m/s, 318° | 109 W/m² | - |
| 1777926670 | 23.33° C | 32% | 1014.5 hPa | 0 mm | 0.89 m/s, 293° | 126 W/m² | - |
| 1777926070 | 22.78° C | 31% | 1014.4 hPa | 0 mm | 1.34 m/s, 318° | - | - |
* Rain latest hour (hover to see other rain measurements)
** Current wind speed in m/s (hover to see current wind gust speed)